Dexter, NY

6:08 AM EST on January 23, 2017 (GMT -0500)
Watertown International

Weather History for KART - May, 2013

Change the Weather History Date:

Wednesday, May 15, 2013

  Actual Average Record
Temperature  
Mean Temperature 53 °F 54 °F  
Max Temperature 73 °F 66 °F 86 °F (1961)
Min Temperature 32 °F 43 °F 30 °F (1969)
Degree Days  
Heating Degree Days 12 11  
Month to date heating degree days 127 195  
Since 1 July heating degree days 6614 7338  
Cooling Degree Days 0 0  
Month to date cooling degree days 0 0  
Year to date cooling degree days 0 1  
Growing Degree Days 3 (Base 50)    
Moisture  
Dew Point 41 °F    
Average Humidity 62    
Maximum Humidity 82    
Minimum Humidity 41    
Precipitation  
Precipitation 0.05 in 0.10 in 1.26 in (2011)
Month to date precipitation 0.54 1.40  
Year to date precipitation 9.53 11.48  
Sea Level Pressure  
Sea Level Pressure 29.72 in    
Wind  
Wind Speed 9 mph (South)    
Max Wind Speed 22 mph    
Max Gust Speed 30 mph    
Visibility 10 miles    
Events Rain , Thunderstorm    
T = Trace of Precipitation, MM = Missing Value Source: NWS Daily Summary

Daily Weather History Graph

Daily Weather History Graph

Search for Another Location

Airport or City:

Trip Planner

Search our weather history database for the weather conditions in past years. The results will help you decide how hot, cold, wet, or windy it might be!

Date:

Astronomy

May. 15, 2013 Rise Set
Actual Time 5:37 AM EDT 8:23 PM EDT
Civil Twilight 5:04 AM EDT 8:57 PM EDT
Nautical Twilight 4:22 AM EDT 9:39 PM EDT
Astronomical Twilight 3:33 AM EDT 10:28 PM EDT
Moon 10:13 AM EDT (5/15) 12:07 AM EDT (5/15)
Length of Visible Light 15h 52m
Length of Day
14h 45m
Waxing Crescent, 26% of the Moon is Illuminated
May 15
Waxing Crescent
May 18
First Quarter
May 25
Full
May 31
Last Quarter
Jun 8
New

Hourly Weather History & Observations

Time (EDT) Temp. Windchill Dew Point Humidity Pressure Visibility Wind Dir Wind Speed Gust Speed Precip Events Conditions
12:56 AM 34.0 °F 29.8 °F 28.9 °F 82% 29.99 in 10.0 mi East 4.6 mph - N/A   Clear
1:56 AM 33.1 °F 30.0 °F 28.0 °F 82% 29.97 in 10.0 mi East 3.5 mph - N/A   Clear
2:56 AM 33.1 °F 30.0 °F 28.0 °F 82% 29.96 in 10.0 mi East 3.5 mph - N/A   Clear
3:56 AM 35.1 °F 31.0 °F 28.0 °F 76% 29.94 in 10.0 mi ENE 4.6 mph - N/A   Clear
4:56 AM 37.0 °F 33.3 °F 30.0 °F 76% 29.92 in 10.0 mi ENE 4.6 mph - N/A   Mostly Cloudy
5:56 AM 46.9 °F - 28.9 °F 50% 29.88 in 10.0 mi Calm Calm - N/A   Overcast
6:56 AM 51.1 °F - 28.9 °F 43% 29.84 in 10.0 mi ESE 3.5 mph - N/A   Scattered Clouds
7:56 AM 53.1 °F - 32.0 °F 45% 29.82 in 10.0 mi SSE 5.8 mph - N/A   Mostly Cloudy
8:56 AM 51.1 °F - 39.0 °F 63% 29.81 in 10.0 mi SSE 5.8 mph - 0.00 in   Overcast
9:56 AM 55.9 °F - 39.9 °F 55% 29.72 in 10.0 mi SE 12.7 mph 21.9 mph 0.00 in   Mostly Cloudy
10:56 AM 57.9 °F - 39.0 °F 49% 29.70 in 10.0 mi SSE 8.1 mph 16.1 mph 0.00 in   Overcast
11:41 AM 55.4 °F - 42.8 °F 63% 29.68 in 10.0 mi South 10.4 mph 19.6 mph 0.00 in Rain , Thunderstorm Light Rain
11:56 AM 53.1 °F - 46.9 °F 80% 29.66 in 5.0 mi SSE 10.4 mph 17.3 mph 0.05 in Rain Light Rain
12:56 PM 55.0 °F - 46.9 °F 74% 29.60 in 10.0 mi South 8.1 mph - 0.00 in   Overcast
1:56 PM 60.1 °F - 48.0 °F 64% 29.56 in 10.0 mi South 6.9 mph - N/A   Overcast
2:56 PM 61.0 °F - 48.9 °F 64% 29.52 in 10.0 mi SSE 16.1 mph 21.9 mph N/A   Overcast
3:56 PM 66.9 °F - 51.1 °F 57% 29.52 in 10.0 mi South 10.4 mph 20.7 mph N/A   Mostly Cloudy
4:56 PM 73.0 °F - 55.0 °F 53% 29.52 in 10.0 mi SW 18.4 mph 27.6 mph N/A   Clear
5:56 PM 70.0 °F - 55.0 °F 59% 29.54 in 10.0 mi SW 12.7 mph 20.7 mph N/A   Clear
6:56 PM 61.0 °F - 48.9 °F 64% 29.57 in 10.0 mi SW 12.7 mph 24.2 mph N/A   Clear
7:56 PM 57.9 °F - 46.9 °F 67% 29.60 in 10.0 mi SW 12.7 mph - N/A   Clear
8:56 PM 57.0 °F - 44.1 °F 62% 29.63 in 10.0 mi WSW 11.5 mph 24.2 mph N/A   Clear
9:56 PM 55.0 °F - 44.1 °F 67% 29.67 in 10.0 mi WSW 10.4 mph - N/A   Clear
10:56 PM 55.0 °F - 42.1 °F 62% 29.67 in 10.0 mi SW 9.2 mph - N/A   Clear
11:56 PM 53.1 °F - 42.1 °F 66% 29.67 in 10.0 mi SW 8.1 mph - N/A   Clear